Theta_e
328 329 329 328 328 327 327 326 326 325 324 323 323 322 322 321 320 319 319 319 318 317 316 316 317 316 316 316 316 316 315 315 315 314 313 312 312 313 313 313 314 314 314 313 313 312 312 312 313 314 317 316
325 326 327 328 327 326 327 326 325 325 323 322 322 322 322 321 320 319 318 318 317 317 316 315 315 316 316 315 315 315 314 314 314 313 312 311 311 311 312 312 312 312 312 312 311 310 310 310 312 313 316 315
327 324 325 326 325 325 325 325 324 323 322 322 321 321 319 318 317 318 318 318 316 315 314 314 315 314 315 314 315 314 313 313 312 311 311 310 311 311 310 310 310 310 310 310 309 308 308 308 310 313 315 314
328 324 323 323 323 323 323 322 322 322 321 320 318 317 316 315 315 317 317 318 315 315 314 315 313 313 314 313 313 313 312 311 311 311 310 310 309 309 309 308 308 307 308 307 307 306 306 307 310 311 313 314
327 326 322 322 321 321 321 320 320 319 319 318 316 314 314 313 314 315 314 312 313 314 311 313 313 313 313 313 313 312 311 310 310 310 309 309 308 307 306 305 304 304 305 304 304 303 304 307 308 311 312 313
325 325 323 325 324 322 321 319 318 318 318 314 315 313 313 313 313 312 312 311 309 309 309 310 311 313 313 312 312 311 310 310 309 309 308 307 307 305 303 302 301 300 300 300 301 301 304 304 306 309 311 312
324 323 323 324 323 322 319 317 316 318 316 315 313 312 313 311 312 311 310 309 309 309 310 310 311 311 314 311 311 310 309 308 308 307 306 306 304 302 299 299 300 299 298 298 298 300 301 302 304 307 309 311
322 322 322 322 321 320 318 317 317 317 317 315 314 313 312 311 312 310 309 308 306 307 308 310 311 311 311 310 310 309 307 306 306 306 305 303 300 297 296 296 295 296 296 296 297 298 298 300 302 304 306 308
320 321 321 320 319 318 318 318 318 317 315 314 314 313 311 311 311 310 309 308 307 307 307 308 308 308 308 307 306 307 305 303 303 301 299 296 296 295 296 295 295 295 295 295 296 296 297 299 300 302 304 307
319 320 319 318 319 318 317 317 316 314 313 313 313 311 311 310 309 308 308 308 307 307 307 306 306 307 307 306 305 305 304 302 301 297 295 294 294 294 295 295 295 294 294 294 294 295 297 297 298 300 301 305
318 317 317 317 317 316 315 315 314 312 312 311 311 311 310 309 308 307 307 307 307 307 307 306 306 306 306 306 305 304 302 300 297 294 293 293 294 293 294 294 294 294 294 294 294 295 296 297 297 299 301 303
317 316 316 316 315 315 314 314 312 311 310 310 309 309 309 308 307 306 305 306 306 307 307 306 306 306 306 306 305 304 301 298 296 293 293 293 293 292 292 292 292 292 293 293 294 294 295 296 296 298 300 303
317 316 316 316 315 315 312 312 311 310 309 308 308 309 308 308 306 306 305 305 305 306 305 305 305 305 304 305 304 303 299 297 295 293 293 292 292 292 291 291 292 292 292 292 293 293 294 294 296 297 299 302
317 317 316 315 314 313 310 311 309 308 307 307 307 307 308 308 307 306 305 305 304 304 304 305 304 304 304 303 302 300 297 296 294 293 292 292 292 291 291 291 291 291 291 291 292 292 292 293 294 296 298 300
316 316 315 315 314 312 310 310 309 308 307 308 308 307 308 308 308 307 306 304 303 303 303 302 302 302 302 301 300 299 297 295 294 293 292 292 291 291 291 291 291 291 290 291 291 292 292 292 293 294 297 298
315 314 314 313 313 311 311 310 310 309 307 306 307 308 308 307 307 306 305 304 302 302 301 301 301 301 300 300 299 298 296 294 294 293 293 293 292 292 292 291 291 291 290 290 290 291 291 291 291 292 295 297
314 315 314 313 312 311 311 310 308 307 307 305 306 307 307 307 307 305 304 303 302 301 300 300 300 299 299 299 298 296 296 294 294 293 293 292 292 292 291 290 290 291 290 290 289 289 290 290 291 291 293 295
315 314 313 312 312 311 311 310 309 308 307 306 306 307 307 308 307 305 304 302 301 301 300 299 299 298 297 297 296 295 295 293 293 292 292 291 290 291 290 289 289 289 289 289 289 289 290 290 290 290 291 293
314 313 312 312 312 311 311 310 309 308 307 305 305 305 305 306 305 304 303 302 301 300 299 298 297 296 296 295 295 294 294 293 292 292 291 291 289 290 289 290 290 289 289 289 288 288 289 289 289 290 290 291
314 313 312 311 309 311 312 311 308 309 307 304 304 304 304 304 303 302 301 301 301 299 298 297 296 296 295 295 294 294 293 292 291 291 292 291 291 289 289 289 289 289 289 289 288 289 288 289 289 289 289 290
314 313 311 311 311 311 310 309 307 308 307 306 302 302 303 302 301 300 299 299 299 298 297 296 296 295 295 294 293 293 292 291 292 291 291 290 290 291 289 289 289 288 289 289 288 289 288 289 288 289 289 289
313 311 311 311 310 308 308 308 308 309 306 303 301 301 301 301 300 299 299 298 298 297 297 296 296 296 295 294 293 292 292 291 291 291 291 289 290 290 289 288 288 288 288 289 288 288 288 288 288 288 289 289
312 310 310 310 308 307 307 307 307 307 303 302 302 301 301 301 300 298 298 298 297 296 296 296 296 295 295 293 292 291 290 290 290 290 290 289 288 290 290 289 289 288 288 289 288 288 287 288 287 288 289 289
309 308 307 306 306 305 304 305 303 303 303 301 301 301 300 299 299 298 297 297 297 297 296 295 295 294 293 292 291 290 289 289 288 289 289 289 289 288 289 290 289 289 288 287 287 287 287 287 287 287 288 287
308 307 306 305 304 303 303 303 303 302 302 301 300 299 299 298 298 298 298 296 296 296 296 295 295 294 292 291 290 290 289 290 289 289 289 289 289 288 287 287 289 289 289 286 285 286 286 286 287 287 286 286
309 308 307 305 304 305 304 302 301 300 300 299 298 299 299 298 297 297 297 297 296 295 296 295 294 293 291 291 290 290 290 290 290 290 289 289 288 289 287 286 288 288 287 284 283 282 282 284 286 286 286 286
308 309 308 308 306 305 305 305 304 304 304 301 299 299 298 298 298 297 297 296 295 294 294 294 293 293 292 291 291 290 290 290 290 289 289 289 288 287 288 287 289 288 287 283 285 285 283 281 281 283 284 285
310 309 309 309 307 306 305 303 304 304 302 301 299 298 297 297 297 297 296 296 296 295 294 294 293 292 291 291 291 291 290 289 289 289 289 289 289 289 285 286 286 287 287 286 285 280 281 282 282 280 281 282
309 307 306 305 303 302 300 297 301 300 298 298 297 297 297 297 296 295 296 295 295 294 293 294 294 292 291 291 290 290 290 290 290 290 289 289 289 288 287 285 285 286 287 287 288 285 282 281 281 281 284 283
306 307 305 303 299 293 293 292 292 293 294 295 295 295 297 297 296 295 295 295 294 294 293 293 294 292 291 291 289 289 289 289 289 289 289 289 289 288 289 287 285 284 286 287 287 288 288 288 282 283 285 284
301 302 304 304 302 300 298 297 297 298 299 298 297 297 296 296 297 296 295 295 295 294 294 293 292 291 290 289 289 289 289 289 289 289 289 290 289 288 289 290 286 285 284 285 286 287 288 288 288 287 284 283
Wind_Speed
15 17 18 19 21 19 19 20 19 17 18 17 18 17 17 16 15 14 14 14 14 13 12 11 11 10 11 11 10 10 10 10 9 9 9 8 8 8 9 9 11 12 12 11 12 11 11 11 10 9 8 5
12 12 14 17 17 15 13 17 19 19 18 15 15 15 14 14 13 12 12 14 13 13 13 12 11 11 10 10 10 10 9 9 9 9 7 7 6 8 9 10 11 11 11 11 11 10 10 9 8 8 5 6
13 16 16 16 17 15 14 14 16 16 16 14 13 13 13 13 12 11 11 12 13 13 12 11 10 11 10 10 10 10 9 9 8 8 7 7 7 8 10 11 11 11 11 10 9 9 8 8 7 6 4 5
12 13 16 16 16 15 14 15 15 15 15 13 13 13 13 13 10 8 8 12 11 13 11 11 6 7 11 9 8 9 9 9 9 8 8 7 7 8 10 11 11 11 10 9 9 9 8 8 8 2 4 4
10 12 16 14 16 16 17 15 16 16 16 14 13 13 13 12 8 7 7 7 8 12 7 9 10 8 9 9 9 9 9 9 8 8 7 7 7 8 10 10 11 11 10 9 8 8 8 9 2 3 3 3
11 8 12 10 10 11 11 13 15 14 11 12 10 14 11 8 7 6 6 7 8 7 9 7 6 5 8 10 9 9 9 8 8 8 7 6 7 8 6 4 3 4 6 8 7 6 8 2 3 2 2 3
8 9 9 9 10 9 10 12 13 11 12 10 11 11 9 8 6 7 7 7 6 6 9 7 5 4 8 11 10 10 9 7 8 7 6 6 6 6 3 2 2 2 2 2 2 2 2 2 3 2 2 3
5 8 9 9 9 9 10 12 11 12 9 9 10 9 8 8 7 7 6 8 12 10 7 6 7 8 8 11 10 9 7 7 6 8 6 5 6 4 2 1 2 2 2 1 1 1 1 2 2 1 1 2
8 9 7 8 9 10 10 11 10 9 9 8 9 8 7 7 6 7 8 7 7 6 5 5 5 5 5 7 8 9 6 6 5 5 4 3 4 2 2 2 2 2 2 2 1 1 1 1 1 1 1 1
6 6 6 5 6 9 9 6 8 8 6 8 9 7 8 8 7 7 7 8 7 7 6 5 5 5 6 7 8 7 6 6 6 4 3 4 3 2 2 2 2 2 2 2 2 2 1 1 1 1 1 2
6 5 5 6 7 8 7 9 10 7 7 7 8 8 8 8 8 7 7 7 7 8 8 7 6 6 7 8 8 7 6 6 5 4 3 3 2 2 3 3 3 2 2 2 2 2 1 1 1 1 1 2
7 7 9 9 6 8 10 8 8 9 8 9 7 9 8 7 7 7 7 6 7 7 8 8 7 7 7 7 7 7 6 5 5 4 4 3 3 4 3 3 3 3 3 2 2 2 2 1 1 1 1 2
9 8 8 8 9 8 10 7 7 9 8 7 7 8 9 9 8 7 7 7 7 7 7 8 8 8 7 8 7 7 6 5 5 4 4 4 4 4 4 4 3 3 3 3 2 2 2 2 1 1 2 2
10 11 11 11 12 10 10 8 8 8 7 7 8 8 9 10 9 9 9 8 7 8 7 8 8 8 7 7 6 6 6 5 4 4 4 4 4 4 4 4 4 4 3 3 3 3 3 2 2 2 2 2
10 10 10 11 12 11 10 9 9 8 8 8 9 9 10 10 10 9 8 8 8 7 7 7 7 8 7 7 6 6 6 5 5 4 4 5 4 4 4 4 4 4 4 3 3 3 3 2 2 2 2 2
11 11 10 9 7 7 11 12 10 9 8 8 9 10 10 10 10 9 9 9 8 8 7 7 7 7 7 7 6 6 6 6 5 5 4 5 4 4 4 4 4 3 4 4 4 3 3 2 2 2 2 3
11 11 9 9 9 9 10 8 7 8 8 7 7 8 12 11 11 9 9 9 9 9 7 7 7 7 7 7 7 6 7 7 6 5 5 5 4 4 4 4 4 3 4 4 4 4 4 3 2 2 2 3
10 9 10 13 9 11 10 11 11 11 9 10 10 9 11 11 11 11 9 9 9 8 8 7 7 8 7 7 7 7 7 7 6 6 6 6 5 5 5 5 5 5 4 4 4 4 4 3 3 3 3 3
12 11 11 11 13 12 13 11 12 13 12 10 10 9 12 11 10 10 9 9 9 9 8 7 7 7 7 7 7 7 7 7 6 6 6 6 6 6 5 5 5 5 5 5 5 5 4 4 4 3 3 3
13 12 12 11 10 11 11 7 10 8 5 8 7 9 9 12 11 9 9 10 9 9 9 8 8 7 7 8 7 7 7 6 6 6 5 6 6 6 6 6 5 5 5 5 5 5 5 4 4 4 4 4
10 9 13 11 9 6 8 6 6 5 7 8 9 6 9 9 9 11 10 10 9 8 8 8 8 8 9 8 8 7 7 7 6 6 5 5 6 5 5 6 6 5 5 5 5 5 4 4 4 4 4 5
11 7 9 11 9 9 10 12 7 7 5 5 6 8 8 10 10 9 13 11 9 8 8 8 9 10 10 9 8 7 7 7 6 6 6 6 6 5 5 5 6 6 5 4 4 5 5 5 4 4 4 5
7 5 9 8 9 9 9 8 7 3 6 5 6 9 8 9 7 11 8 12 11 9 7 7 9 10 11 9 8 7 7 7 7 6 6 6 6 5 5 5 6 6 5 4 4 4 5 5 5 4 4 4
5 6 8 8 5 4 4 5 7 6 7 5 6 8 5 6 7 8 10 12 11 10 9 6 7 8 10 9 8 8 8 8 8 9 8 8 8 7 6 5 5 5 5 5 4 4 4 4 4 5 4 5
7 9 7 4 7 9 8 8 7 7 6 6 8 5 7 11 8 10 9 11 12 13 11 10 7 8 8 9 9 9 10 10 10 9 9 8 7 9 7 6 5 5 5 5 4 4 4 4 5 5 6 6
7 9 9 8 9 9 9 7 7 8 7 9 8 9 7 7 9 10 9 9 10 9 8 10 10 10 10 10 10 10 10 10 10 11 10 9 7 7 9 7 8 6 7 6 6 6 5 5 5 6 7 7
4 6 8 10 7 10 8 8 9 10 8 4 5 5 5 5 5 9 7 8 8 12 12 10 6 7 8 10 10 10 11 12 12 12 13 13 10 9 8 7 7 8 9 6 6 5 5 6 5 6 6 7
5 6 11 14 12 12 9 8 11 9 5 6 7 8 9 9 8 7 6 9 9 8 10 11 11 9 7 8 9 8 10 12 13 13 12 12 12 10 9 9 9 10 10 7 7 6 8 6 7 6 8 9
6 6 5 4 3 1 3 6 3 6 6 6 5 6 8 10 11 10 10 11 11 10 10 10 10 11 11 11 10 9 8 9 12 13 13 14 13 13 11 10 9 10 11 10 8 5 5 4 5 6 2 9
9 6 6 4 3 2 2 3 4 6 8 10 11 13 12 12 12 12 11 11 12 12 12 12 11 11 9 9 9 9 10 9 9 10 11 13 13 14 12 10 10 9 9 10 11 9 6 3 2 3 6 8
11 10 7 7 6 8 8 9 8 8 7 7 7 7 7 8 9 10 12 10 8 9 7 8 10 11 11 10 10 9 8 10 12 12 13 12 12 12 12 11 11 11 10 9 9 8 7 5 4 2 3 5
Wind_Direction
165 156 153 150 151 156 154 147 147 147 145 153 148 146 143 142 140 141 142 138 136 132 133 132 131 133 131 129 125 122 121 116 117 117 107 100 93 90 93 85 75 71 66 59 52 46 39 29 15 1 344 94
160 160 154 151 151 157 160 150 146 146 147 144 135 142 134 129 130 140 144 137 139 139 136 137 137 138 134 129 126 125 124 119 119 109 111 104 91 84 80 77 75 72 67 60 54 45 36 25 2 353 2 99
171 173 161 159 153 157 157 145 137 136 136 138 130 114 117 123 127 138 140 136 141 138 138 129 139 140 136 137 129 124 128 125 123 123 122 113 89 80 76 74 71 67 64 60 51 42 26 7 345 336 63 84
167 172 162 154 150 150 145 140 140 136 133 131 122 118 119 121 122 122 123 134 141 135 131 122 131 143 143 146 143 138 137 133 131 133 129 113 94 79 74 70 68 64 61 56 46 31 11 346 319 79 80 84
169 167 159 153 150 154 152 148 142 140 138 133 127 126 126 125 124 127 126 113 120 119 107 116 145 160 148 151 150 143 142 137 142 138 125 117 96 85 78 73 66 58 56 51 39 18 355 318 355 49 67 88
173 163 159 152 154 156 152 145 144 145 142 137 131 132 131 127 121 120 117 109 108 106 108 99 106 112 145 152 154 152 139 141 145 133 131 121 110 98 90 89 94 79 59 45 31 3 323 316 77 56 59 89
164 157 158 152 155 156 153 144 148 150 144 139 137 140 137 129 124 120 108 115 114 114 102 95 109 104 163 154 153 157 154 133 154 150 141 139 123 109 98 60 79 82 88 81 9 305 344 52 35 41 64 98
146 157 166 155 161 155 156 155 159 154 145 137 140 141 142 136 126 120 120 111 109 103 103 94 87 84 127 141 135 129 139 141 103 108 123 127 131 136 204 125 111 118 125 128 122 30 70 73 55 52 67 89
175 170 162 166 161 162 161 162 156 147 141 141 135 131 129 119 116 123 127 134 132 131 121 122 120 114 111 115 119 129 131 124 138 146 154 160 198 180 148 138 118 129 139 138 141 116 58 85 89 74 55 95
175 165 165 155 163 161 159 147 138 145 137 142 137 135 129 128 120 119 135 146 153 148 143 138 149 144 136 133 137 145 148 155 171 179 169 178 191 163 138 127 120 110 130 133 145 113 69 89 110 84 95 101
157 153 162 169 172 154 148 150 151 145 146 148 133 128 134 139 141 139 142 148 158 159 155 157 159 161 154 153 154 161 163 158 161 176 170 175 167 132 125 122 116 105 84 91 96 95 91 68 83 116 112 126
179 164 162 171 167 170 170 158 156 152 149 147 136 142 147 140 140 146 146 146 155 162 161 162 165 163 159 162 167 175 160 158 169 174 171 156 153 149 141 134 135 132 123 115 114 112 106 111 134 105 98 97
176 177 174 171 178 180 173 176 160 145 134 135 142 150 148 150 149 151 154 158 161 163 169 166 172 176 175 175 176 178 164 168 172 174 165 163 164 160 155 147 148 141 137 145 133 128 123 139 112 106 123 118
179 180 182 178 181 172 173 170 154 147 144 140 148 152 159 159 159 162 163 161 160 166 172 169 170 172 173 172 168 172 165 165 172 171 165 167 167 161 163 163 151 155 148 137 127 142 136 147 145 135 126 140
185 181 185 183 181 170 167 158 164 170 162 157 161 161 160 162 164 164 163 158 156 162 160 164 168 174 168 172 170 174 170 165 173 169 167 164 172 163 174 157 155 167 146 145 135 127 148 146 142 145 138 140
182 184 185 179 172 166 168 167 172 174 170 165 162 162 163 167 167 168 164 161 160 165 163 169 176 174 173 177 172 176 170 163 169 166 160 162 172 167 171 152 159 164 154 152 150 143 141 158 146 152 151 139
194 186 177 174 175 172 176 168 161 167 162 157 155 157 171 175 172 167 165 162 166 164 162 168 172 174 177 177 172 170 163 160 158 161 154 155 153 164 166 159 160 166 161 155 151 160 163 159 155 151 151 158
193 189 182 182 180 176 177 181 177 177 173 168 166 165 170 174 173 171 163 153 160 163 163 169 173 177 175 178 168 166 159 165 169 171 170 163 171 174 177 173 167 173 173 158 155 159 159 164 167 163 168 159
201 209 195 187 190 186 188 181 182 180 179 173 167 159 174 174 172 174 158 155 159 163 166 168 174 177 174 168 166 164 168 174 178 179 174 172 178 170 188 180 175 181 176 165 168 160 168 171 162 164 168 159
200 199 202 205 202 203 196 189 197 186 160 181 167 169 166 170 167 167 162 161 161 160 167 167 171 170 167 159 166 171 168 176 177 179 176 180 183 173 185 180 178 184 176 169 169 164 172 167 161 175 171 171
209 193 203 198 199 191 201 207 200 183 195 174 189 172 172 164 158 167 165 165 168 166 165 168 171 170 169 162 168 169 166 177 179 173 175 178 190 187 180 180 183 180 182 172 172 164 169 161 172 177 178 173
213 190 194 198 199 192 198 207 201 185 176 189 166 173 189 179 166 146 158 166 169 182 181 176 172 170 164 162 165 161 164 175 175 170 177 173 182 190 180 179 186 186 182 171 172 171 178 174 182 188 178 177
197 179 203 200 190 196 202 206 207 148 190 199 183 191 186 168 167 174 149 163 169 177 185 183 175 164 158 159 160 155 160 167 168 168 177 170 169 187 194 190 190 188 176 159 174 178 182 186 195 190 179 178
178 195 199 194 184 214 220 208 202 187 199 185 191 203 162 186 180 163 175 173 164 168 178 190 179 159 155 158 156 157 163 172 176 174 173 179 173 177 190 206 186 181 170 167 174 189 196 196 202 200 188 192
191 198 195 201 207 208 201 204 203 204 195 190 205 188 178 185 194 184 174 180 172 181 180 185 179 160 162 162 163 169 181 179 176 174 175 176 176 176 178 187 184 175 171 168 176 183 208 216 209 214 212 208
196 197 204 198 202 203 204 194 201 212 201 201 190 192 188 200 193 188 187 180 178 171 184 188 178 165 168 171 172 177 177 176 173 171 173 173 174 185 183 186 182 172 171 193 195 183 198 213 216 210 212 217
232 225 203 200 192 194 194 198 210 212 212 157 170 176 179 186 193 203 192 190 191 184 183 188 182 179 172 178 177 173 176 178 178 177 177 177 176 176 190 193 175 178 195 193 196 208 207 204 193 200 215 220
275 229 219 212 201 199 198 201 200 199 183 164 175 185 185 194 186 189 205 194 192 203 190 183 185 183 178 183 185 185 178 177 178 177 178 179 185 175 173 191 183 188 197 213 183 202 210 212 185 209 209 206
269 281 298 310 339 31 51 21 134 163 172 168 182 194 191 199 193 198 198 196 199 200 197 196 193 189 187 187 190 188 187 186 187 183 181 178 178 184 180 185 181 188 194 211 234 207 187 214 234 234 205 170
335 300 261 236 235 250 194 157 147 184 194 193 193 200 202 197 189 192 196 201 202 202 196 197 191 189 194 192 193 199 194 187 185 186 184 185 183 186 192 181 181 180 194 208 223 244 265 341 280 225 188 161
352 345 310 273 237 221 212 214 208 198 197 208 219 207 198 199 195 200 198 199 192 207 211 209 198 192 193 193 196 203 207 202 195 194 193 186 189 185 187 193 195 180 179 195 222 230 251 248 232 252 285 214